GW0888 Weather Reports


time (UTC)temp
C
wind
direction
speed
KPH
gust
KPH
rain 1hr
cm
rain 24hr
cm
rain mn
cm
humidity
%
barometer
mb
20260505073046 18 244 8.0 12.9 0.00 0.00 0.00 61 1009.1
20260505071539 18 225 9.7 17.7 0.00 0.00 0.00 62 1009.0
20260505070036 18 252 4.8 11.3 0.00 0.00 0.00 63 1009.1
20260505064551 17 262 4.8 16.1 0.00 0.00 0.00 64 1009.1
20260505063035 17 229 4.8 14.5 0.00 0.00 0.00 66 1009.2
20260505061534 16 264 4.8 11.3 0.00 0.00 0.00 70 1009.3
20260505060134 15 259 6.4 14.5 0.00 0.00 0.00 75 1009.3
20260505054505 13 271 3.2 9.7 0.00 0.00 0.00 81 1009.4
20260505053001 13 282 1.6 3.2 0.00 0.00 0.00 82 1009.3
20260505051558 13 272 1.6 3.2 0.00 0.00 0.00 83 1009.3
20260505041521 15 272 1.6 3.2 0.00 0.00 0.00 80 1008.7
20260505040020 15 272 1.6 4.8 0.00 0.00 0.00 78 1008.5
20260505034605 15 272 0.0 3.2 0.00 0.00 0.00 78 1008.4
20260505033045 15 272 0.0 3.2 0.00 0.00 0.00 77 1008.4
20260505031513 16 272 1.6 3.2 0.00 0.00 0.00 76 1008.3
20260505030027 17 256 0.0 4.8 0.00 0.00 0.00 73 1008.4
20260505024509 17 293 1.6 4.8 0.00 0.00 0.00 72 1008.4
20260505023003 17 245 0.0 3.2 0.00 0.00 0.00 70 1008.3
20260505021559 18 265 3.2 6.4 0.00 0.00 0.00 69 1008.2
20260505020107 18 254 3.2 6.4 0.00 0.00 0.00 66 1008.1
20260505014550 19 244 1.6 4.8 0.00 0.00 0.00 65 1008.0
20260505013046 20 263 1.6 3.2 0.00 0.00 0.00 62 1007.9
20260505011545 21 257 1.6 3.2 0.00 0.00 0.00 60 1007.9
20260505010040 22 257 0.0 1.6 0.00 0.00 0.00 57 1008.0
20260505004554 22 257 0.0 1.6 0.00 0.00 0.00 53 1007.9
20260505003029 23 257 0.0 3.2 0.00 0.00 0.00 52 1007.8
20260505001533 23 250 0.0 3.2 0.00 0.00 0.00 49 1007.8
20260505000027 24 250 1.6 6.4 0.00 0.00 0.00 46 1007.9
20260504234525 25 287 4.8 14.5 0.00 0.00 0.00 45 1008.0
20260504233025 25 241 8.0 19.3 0.00 0.00 0.00 44 1008.0
20260504231523 25 249 6.4 20.9 0.00 0.00 0.00 44 1007.9
20260504230020 25 279 6.4 16.1 0.00 0.00 0.00 44 1007.8
20260504224517 25 244 8.0 16.1 0.00 0.00 0.00 44 1007.9
20260504223016 25 207 6.4 17.7 0.00 0.00 0.00 44 1008.1
20260504221513 25 252 6.4 24.1 0.00 0.00 0.00 45 1008.3
20260504220011 26 225 9.7 14.5 0.00 0.00 0.00 44 1008.3
20260504214504 26 252 11.3 25.7 0.00 0.00 0.00 44 1008.3
20260504213009 25 275 6.4 20.9 0.00 0.00 0.00 47 1008.3
20260504211600 25 287 4.8 16.1 0.00 0.00 0.00 48 1008.5
20260504210059 25 252 16.1 24.1 0.00 0.00 0.00 47 1008.7
20260504204552 25 252 9.7 17.7 0.00 0.00 0.00 49 1008.8
20260504203049 24 263 6.4 16.1 0.00 0.00 0.00 50 1008.9
20260504201545 23 38 6.4 22.5 0.00 0.00 0.00 50 1009.1
20260504200041 23 193 8.0 25.7 0.00 0.00 0.00 51 1009.3
20260504194539 22 291 6.4 24.1 0.00 0.00 0.00 51 1009.4
20260504193043 22 257 8.0 19.3 0.00 0.00 0.00 52 1009.8
20260504191603 21 284 6.4 22.5 0.00 0.00 0.00 56 1009.9
20260504190039 20 222 11.3 20.9 0.00 0.00 0.00 62 1010.2
20260504184542 19 220 4.8 19.3 0.00 0.00 0.00 67 1010.4
20260504183031 21 242 12.9 29.0 0.00 0.00 0.00 54 1011.3
20260504181533 23 284 12.9 22.5 0.00 0.00 0.00 48 1011.1
20260504180034 24 265 12.9 22.5 0.00 0.00 0.00 46 1010.7
20260504174525 23 281 6.4 19.3 0.00 0.00 0.00 47 1010.4
20260504173021 22 239 14.5 25.7 0.00 0.00 0.00 49 1010.6
20260504171518 21 213 6.4 16.1 0.00 0.00 0.00 53 1010.5
20260504081512 8 355 0.0 1.6 0.00 0.00 0.00 83 1013.7